Find Starlink 1327

NORAD ID: 45555 Int'l Des: 2020-025 Owner: SPXS Country: US Constellation: starlink operational
LEOCIRCULAR

Current View

Loading 3D Globe...

About Starlink 1327

Description loading...

Upcoming Passes

Passes for default location (London). Set your location on the main map for personalized predictions.

Altitude History

Loading altitude history...

Two-Line Element Set

1 45555U 20025AA 26149.08186016 .00060031 00000-0 57509-3 0 9994
2 45555 53.0429 34.5601 0004973 54.8321 305.3159 15.66097646338206
Epoch: May 29, 2026 • Age: 26 hours

Current Status

Altitude 368.0 km
Velocity 7.69 km/s
Sub-Earth Point 5.17°N, 85°E
Launch Date Apr 22, 2020
Age 6 years
Type internet

Technical Details

Classification Payload
Mass 260.00 kg
Dry Mass 248.00 kg
Total Mass 260.00 kg
Length 0.20 m
Diameter 2.80 m
Span 9.00 m
Shape Box + pan
Manufacturer SPXS
Bus Type Starlink
Phase Status In Orbit
Owner/State SPXS/US

Most Searched